Location: Unspecified
(49.2170°N, 0.0000°E)
Time: 18:13:24
(UTC+00:00)

Transit 2A - Pass Details

Date: 26 June 2019
Orbit: 594 x 965 km, 66.7° (Epoch: 16 July)

Event Time Altitude Azimuth Distance (km) Brightness Sun altitude
Rises 23:16:33 0° 207° (SSW) 3,629 - -16.7°
Reaches altitude 10° 23:19:06 10° 205° (SSW) 2,695 - -16.8°
Exits shadow 23:20:49 20° 204° (SSW) 2,088 7.8 -16.8°
Maximum altitude 23:25:28 75° 122° (ESE) 994 6.4 -17.0°
Drops below altitude 10° 23:31:39 10° 39° (NE) 2,630 9.4 -17.1°
Sets 23:34:07 0° 37° (NE) 3,536 10.1 -17.2°
